Time,TemperatureF,DewpointF,PressureIn,WindDirection,WindDirectionDegrees,WindSpeedMPH,WindSpeedGustMPH,Humidity,HourlyPrecipIn,Conditions,Clouds,dailyrainin,SolarRadiationWatts/m^2,SoftwareType,DateUTC
2013-08-31 00:04:00,78.0,67.0,-100.00,SSW,195,3.0,4.0,68,0.00,,,0.00,0.000000,,2013-08-31 05:04:00,
2013-08-31 00:43:00,79.0,67.0,-100.00,South,178,5.0,6.0,66,0.00,,,0.00,0.000000,,2013-08-31 05:43:00,
2013-08-31 00:53:00,79.0,67.0,-100.00,South,178,5.0,6.0,66,0.00,,,0.00,0.000000,,2013-08-31 05:53:00,
2013-08-31 01:02:00,79.0,67.0,-100.00,South,178,5.0,6.0,66,0.00,,,0.00,0.000000,,2013-08-31 06:02:00,
2013-08-31 01:42:00,79.0,67.0,-100.00,SSE,166,5.0,7.0,66,0.00,,,0.00,0.000000,,2013-08-31 06:42:00,
2013-08-31 01:52:00,79.0,67.0,-100.00,SSE,166,5.0,7.0,66,0.00,,,0.00,0.000000,,2013-08-31 06:52:00,
2013-08-31 02:02:00,79.0,67.0,-100.00,SSE,166,5.0,7.0,66,0.00,,,0.00,0.000000,,2013-08-31 07:02:00,
2013-08-31 02:42:00,78.0,67.0,-100.00,South,186,4.0,8.0,69,0.00,,,0.00,0.000000,,2013-08-31 07:42:00,
2013-08-31 02:52:00,78.0,67.0,-100.00,South,186,4.0,8.0,69,0.00,,,0.00,0.000000,,2013-08-31 07:52:00,
2013-08-31 03:03:00,78.0,67.0,-100.00,South,186,4.0,8.0,69,0.00,,,0.00,0.000000,,2013-08-31 08:03:00,
2013-08-31 03:42:00,80.0,66.0,-100.00,SW,231,5.0,7.0,63,0.00,,,0.00,0.000000,,2013-08-31 08:42:00,
2013-08-31 03:52:00,80.0,66.0,-100.00,SW,231,5.0,7.0,63,0.00,,,0.00,0.000000,,2013-08-31 08:52:00,
2013-08-31 04:02:00,80.0,66.0,-100.00,SW,231,5.0,7.0,63,0.00,,,0.00,0.000000,,2013-08-31 09:02:00,
2013-08-31 04:44:00,79.0,65.0,-100.00,WSW,237,6.0,8.0,62,0.00,,,0.00,0.000000,,2013-08-31 09:44:00,
2013-08-31 04:53:00,79.0,65.0,-100.00,WSW,237,6.0,8.0,62,0.00,,,0.00,0.000000,,2013-08-31 09:53:00,
2013-08-31 05:03:00,79.0,65.0,-100.00,WSW,237,6.0,8.0,62,0.00,,,0.00,0.000000,,2013-08-31 10:03:00,
2013-08-31 05:43:00,77.0,63.0,-100.00,SSW,197,5.0,8.0,63,0.00,,,0.00,0.000000,,2013-08-31 10:43:00,
2013-08-31 05:53:00,77.0,63.0,-100.00,SSW,197,5.0,8.0,63,0.00,,,0.00,0.000000,,2013-08-31 10:53:00,
2013-08-31 06:02:00,77.0,63.0,-100.00,SSW,197,5.0,8.0,63,0.00,,,0.00,0.000000,,2013-08-31 11:02:00,
2013-08-31 06:42:00,77.0,65.0,-100.00,SSW,213,5.0,9.0,66,0.00,,,0.00,0.000000,,2013-08-31 11:42:00,
2013-08-31 06:52:00,77.0,65.0,-100.00,SSW,213,5.0,9.0,66,0.00,,,0.00,0.000000,,2013-08-31 11:52:00,
2013-08-31 07:02:00,77.0,65.0,-100.00,SSW,213,5.0,9.0,66,0.00,,,0.00,0.000000,,2013-08-31 12:02:00,
2013-08-31 07:42:00,78.0,65.0,-100.00,SW,232,6.0,10.0,64,0.00,,,0.00,5.000000,,2013-08-31 12:42:00,
2013-08-31 07:52:00,78.0,65.0,-100.00,SW,232,6.0,10.0,64,0.00,,,0.00,5.000000,,2013-08-31 12:52:00,
2013-08-31 08:01:00,78.0,65.0,-100.00,SW,232,6.0,10.0,64,0.00,,,0.00,5.000000,,2013-08-31 13:01:00,
2013-08-31 08:42:00,79.0,65.0,-100.00,WSW,242,7.0,11.0,62,0.00,,,0.00,105.000000,,2013-08-31 13:42:00,
2013-08-31 08:52:00,79.0,65.0,-100.00,WSW,242,7.0,11.0,62,0.00,,,0.00,105.000000,,2013-08-31 13:52:00,
2013-08-31 09:02:00,79.0,65.0,-100.00,WSW,242,7.0,11.0,62,0.00,,,0.00,105.000000,,2013-08-31 14:02:00,
2013-08-31 09:42:00,81.0,66.0,-100.00,WSW,238,5.0,11.0,61,0.00,,,0.00,316.000000,,2013-08-31 14:42:00,
2013-08-31 09:52:00,81.0,66.0,-100.00,WSW,238,5.0,11.0,61,0.00,,,0.00,316.000000,,2013-08-31 14:52:00,
2013-08-31 10:01:00,81.0,66.0,-100.00,WSW,238,5.0,11.0,61,0.00,,,0.00,316.000000,,2013-08-31 15:01:00,
2013-08-31 10:45:00,84.0,67.0,-100.00,SSW,196,5.0,7.0,57,0.00,,,0.00,540.000000,,2013-08-31 15:45:00,
2013-08-31 10:55:00,84.0,67.0,-100.00,SSW,196,5.0,7.0,57,0.00,,,0.00,540.000000,,2013-08-31 15:55:00,
2013-08-31 11:04:00,84.0,67.0,-100.00,SSW,196,5.0,7.0,57,0.00,,,0.00,540.000000,,2013-08-31 16:04:00,
2013-08-31 11:44:00,86.0,69.0,-100.00,WSW,240,6.0,10.0,58,0.00,,,0.00,716.000000,,2013-08-31 16:44:00,
2013-08-31 11:52:00,86.0,69.0,-100.00,WSW,240,6.0,10.0,58,0.00,,,0.00,716.000000,,2013-08-31 16:52:00,
2013-08-31 12:03:00,86.0,69.0,-100.00,WSW,240,6.0,10.0,58,0.00,,,0.00,716.000000,,2013-08-31 17:03:00,
2013-08-31 12:43:00,87.0,69.0,-100.00,SW,220,6.0,10.0,56,0.00,,,0.00,900.000000,,2013-08-31 17:43:00,
2013-08-31 12:53:00,87.0,69.0,-100.00,SW,220,6.0,10.0,56,0.00,,,0.00,900.000000,,2013-08-31 17:53:00,
2013-08-31 13:02:00,87.0,69.0,-100.00,SW,220,6.0,10.0,56,0.00,,,0.00,900.000000,,2013-08-31 18:02:00,
2013-08-31 13:42:00,88.0,69.0,-100.00,SSW,211,6.0,11.0,53,0.00,,,0.00,992.000000,,2013-08-31 18:42:00,
2013-08-31 13:52:00,88.0,69.0,-100.00,SSW,211,6.0,11.0,53,0.00,,,0.00,992.000000,,2013-08-31 18:52:00,
2013-08-31 14:01:00,88.0,69.0,-100.00,SSW,211,6.0,11.0,53,0.00,,,0.00,992.000000,,2013-08-31 19:01:00,
2013-08-31 14:42:00,89.0,67.0,-100.00,SW,231,7.0,12.0,49,0.00,,,0.00,1001.000000,,2013-08-31 19:42:00,
2013-08-31 14:52:00,89.0,67.0,-100.00,SW,231,7.0,12.0,49,0.00,,,0.00,1001.000000,,2013-08-31 19:52:00,
2013-08-31 15:02:00,89.0,67.0,-100.00,SW,231,7.0,12.0,49,0.00,,,0.00,1001.000000,,2013-08-31 20:02:00,
2013-08-31 15:43:00,90.0,66.0,-100.00,West,265,7.0,13.0,45,0.00,,,0.00,876.000000,,2013-08-31 20:43:00,
2013-08-31 15:53:00,90.0,66.0,-100.00,West,265,7.0,13.0,45,0.00,,,0.00,876.000000,,2013-08-31 20:53:00,
2013-08-31 16:02:00,90.0,66.0,-100.00,West,265,7.0,13.0,45,0.00,,,0.00,876.000000,,2013-08-31 21:02:00,
2013-08-31 16:44:00,91.0,65.0,-100.00,WSW,252,6.0,12.0,43,0.00,,,0.00,819.000000,,2013-08-31 21:44:00,
2013-08-31 16:54:00,91.0,65.0,-100.00,WSW,252,6.0,12.0,43,0.00,,,0.00,819.000000,,2013-08-31 21:54:00,
2013-08-31 17:04:00,91.0,65.0,-100.00,WSW,252,6.0,12.0,43,0.00,,,0.00,819.000000,,2013-08-31 22:04:00,
2013-08-31 17:44:00,90.0,66.0,-100.00,WSW,247,5.0,9.0,45,0.00,,,0.00,637.000000,,2013-08-31 22:44:00,
2013-08-31 17:53:00,90.0,66.0,-100.00,WSW,247,5.0,9.0,45,0.00,,,0.00,637.000000,,2013-08-31 22:53:00,
2013-08-31 18:03:00,90.0,66.0,-100.00,WSW,247,5.0,9.0,45,0.00,,,0.00,637.000000,,2013-08-31 23:03:00,
2013-08-31 18:42:00,90.0,66.0,-100.00,West,262,3.0,7.0,46,0.00,,,0.00,448.000000,,2013-08-31 23:42:00,
2013-08-31 18:52:00,90.0,66.0,-100.00,West,262,3.0,7.0,46,0.00,,,0.00,448.000000,,2013-08-31 23:52:00,
2013-08-31 19:01:00,90.0,66.0,-100.00,West,262,3.0,7.0,46,0.00,,,0.00,448.000000,,2013-09-01 00:01:00,
2013-08-31 19:42:00,85.0,68.0,-100.00,SSW,208,4.0,10.0,57,0.00,,,0.00,203.000000,,2013-09-01 00:42:00,
2013-08-31 19:52:00,85.0,68.0,-100.00,SSW,208,4.0,10.0,57,0.00,,,0.00,203.000000,,2013-09-01 00:52:00,
2013-08-31 20:02:00,85.0,68.0,-100.00,SSW,208,4.0,10.0,57,0.00,,,0.00,203.000000,,2013-09-01 01:02:00,
2013-08-31 20:42:00,82.0,68.0,-100.00,SSW,196,5.0,6.0,62,0.00,,,0.00,17.000000,,2013-09-01 01:42:00,
2013-08-31 20:52:00,82.0,68.0,-100.00,SSW,196,5.0,6.0,62,0.00,,,0.00,17.000000,,2013-09-01 01:52:00,
2013-08-31 21:02:00,82.0,68.0,-100.00,SSW,196,5.0,6.0,62,0.00,,,0.00,17.000000,,2013-09-01 02:02:00,
2013-08-31 21:43:00,80.0,66.0,-100.00,SSW,194,3.0,8.0,63,0.00,,,0.00,0.000000,,2013-09-01 02:43:00,
2013-08-31 21:53:00,80.0,66.0,-100.00,SSW,194,3.0,8.0,63,0.00,,,0.00,0.000000,,2013-09-01 02:53:00,
2013-08-31 22:02:00,80.0,66.0,-100.00,SSW,194,3.0,8.0,63,0.00,,,0.00,0.000000,,2013-09-01 03:02:00,
2013-08-31 22:44:00,79.0,66.0,-100.00,South,177,5.0,6.0,65,0.00,,,0.00,0.000000,,2013-09-01 03:44:00,
2013-08-31 22:54:00,79.0,66.0,-100.00,South,177,5.0,6.0,65,0.00,,,0.00,0.000000,,2013-09-01 03:54:00,
2013-08-31 23:03:00,-999.0,-99.9,-100.00,South,177,5.0,6.0,-999,-99.99,,,-99.99,0.000000,,2013-09-01 04:03:00,
2013-08-31 23:43:00,79.0,66.0,-100.00,South,172,5.0,7.0,65,0.00,,,0.00,0.000000,,2013-09-01 04:43:00,
2013-08-31 23:54:00,79.0,66.0,-100.00,South,172,5.0,7.0,65,0.00,,,0.00,0.000000,,2013-09-01 04:54:00,